Weather History for Dallas Paulding County Region, GA

Change the Weather History Date:

Sunday, March 16, 2014

  Actual Average (KVPC) Record (KVPC)
Temperature  
Mean Temperature 56 °F 52 °F  
Max Temperature 60 °F 65 °F 81 °F (2012)
Min Temperature 51 °F 39 °F 34 °F (2006)
Degree Days  
Heating Degree Days 10 13  
Month to date heating degree days 244  
Since 1 July heating degree days 2856  
Cooling Degree Days 0 0  
Month to date cooling degree days 0  
Year to date cooling degree days 0  
Growing Degree Days 6 (Base 50)    
Moisture  
Dew Point 54 °F    
Average Humidity 94    
Maximum Humidity 100    
Minimum Humidity 51    
Precipitation  
Precipitation 0.00 in 0.17 in 3.10 in (1976)
Month to date precipitation 2.47  
Year to date precipitation 11.97  
Sea Level Pressure  
Sea Level Pressure 29.77 in    
Wind  
Wind Speed 4 mph (SE)    
Max Wind Speed 16 mph    
Max Gust Speed 22 mph    
Visibility 8 miles    
Events Rain    
T = Trace of Precipitation, MM = Missing Value Source: NWS Daily Summary

Daily Weather History Graph

Daily Weather History Graph

Search for Another Location

Airport:

Trip Planner

Search our weather history database for the weather conditions in past years. The results will help you decide how hot, cold, wet, or windy it might be!

Date:

Astronomy

Mar. 16, 2014 Rise Set
Actual Time 7:48 AM EDT 7:48 PM EDT
Civil Twilight 7:23 AM EDT 8:13 PM EDT
Nautical Twilight 6:55 AM EDT 8:42 PM EDT
Astronomical Twilight 6:25 AM EDT 9:11 PM EDT
Moon 8:02 PM EDT (3/16) 7:32 AM EDT (3/16)
Length of Visible Light 12h 49m
Length of Day
11h 59m
Full, 100% of the Moon is Illuminated
Mar 16
Full
Mar 16
Full
Mar 23
Last Quarter
Mar 30
New
Apr 7
First Quarter

Hourly Weather History & Observations

Time (EDT) Temp. Dew Point Humidity Pressure Visibility Wind Dir Wind Speed Gust Speed Precip Events Conditions
12:15 AM 59.0 °F 41.0 °F 51% 30.00 in 10.0 mi Calm Calm - N/A   Clear
12:35 AM 59.0 °F 42.8 °F 55% 30.00 in 10.0 mi Calm Calm - N/A   Clear
12:55 AM 59.0 °F 42.8 °F 55% 30.00 in 10.0 mi Calm Calm - N/A   Clear
1:15 AM 59.0 °F 42.8 °F 55% 30.00 in 10.0 mi South 3.5 mph - N/A   Clear
1:35 AM 57.2 °F 42.8 °F 59% 29.99 in 10.0 mi South 3.5 mph - N/A Rain Light Rain
1:55 AM 55.4 °F 44.6 °F 67% 29.98 in 10.0 mi SSE 3.5 mph - N/A   Drizzle
2:15 AM 55.4 °F 46.4 °F 72% 29.97 in 10.0 mi Calm Calm - N/A Rain Rain
2:35 AM 53.6 °F 46.4 °F 77% 29.96 in 10.0 mi Calm Calm - N/A   Drizzle
2:55 AM 53.6 °F 48.2 °F 82% 29.96 in 10.0 mi SSE 3.5 mph - N/A   Drizzle
3:15 AM 53.6 °F 50.0 °F 88% 29.95 in 10.0 mi SSE 3.5 mph - N/A Rain Rain
3:35 AM 53.6 °F 50.0 °F 88% 29.94 in 10.0 mi SSE 3.5 mph - N/A Rain Rain
3:55 AM 53.6 °F 51.8 °F 94% 29.93 in 10.0 mi SSE 3.5 mph - N/A Rain Light Rain
4:15 AM 53.6 °F 51.8 °F 94% 29.92 in 7.0 mi SSE 3.5 mph - N/A Rain Light Rain
4:35 AM 53.6 °F 51.8 °F 94% 29.90 in 7.0 mi SE 3.5 mph - N/A Rain Light Rain
4:55 AM 53.6 °F 51.8 °F 94% 29.89 in 5.0 mi SE 3.5 mph - N/A Rain Rain
5:15 AM 51.8 °F 51.8 °F 100% 29.88 in 4.0 mi SE 4.6 mph - N/A Rain Rain
5:35 AM 53.6 °F 51.8 °F 94% 29.86 in 3.0 mi ESE 4.6 mph - N/A Rain Rain
5:55 AM 53.6 °F 53.6 °F 100% 29.86 in 2.0 mi Calm Calm - N/A Rain Rain
6:15 AM 53.6 °F 53.6 °F 100% 29.84 in 1.5 mi ESE 8.1 mph - N/A Rain Rain
6:35 AM 53.6 °F 53.6 °F 100% 29.84 in 2.5 mi ESE 6.9 mph - N/A Rain Light Rain
6:55 AM 53.6 °F 53.6 °F 100% 29.83 in 1.2 mi ESE 6.9 mph - N/A Rain Heavy Rain
7:15 AM 53.6 °F 53.6 °F 100% 29.83 in 1.5 mi East 6.9 mph - N/A Rain Heavy Rain
7:35 AM 53.6 °F 53.6 °F 100% 29.81 in 2.0 mi East 12.7 mph - N/A Rain Rain
7:55 AM 53.6 °F 53.6 °F 100% 29.80 in 5.0 mi ESE 11.5 mph - N/A Rain Rain
8:15 AM 53.6 °F 53.6 °F 100% 29.81 in 5.0 mi ESE 9.2 mph - N/A Rain Rain
8:35 AM 53.6 °F 53.6 °F 100% 29.81 in 3.0 mi SSE 5.8 mph - N/A Rain Rain
8:55 AM 53.6 °F 53.6 °F 100% 29.81 in 2.0 mi SE 9.2 mph - N/A Rain Heavy Rain
9:15 AM 53.6 °F 53.6 °F 100% 29.79 in 2.0 mi SE 10.4 mph 19.6 mph N/A Rain Rain
9:35 AM 53.6 °F 53.6 °F 100% 29.78 in 3.0 mi SE 11.5 mph 21.9 mph N/A Rain Light Rain
9:55 AM 53.6 °F 53.6 °F 100% 29.77 in 4.0 mi SE 12.7 mph 21.9 mph N/A Rain Light Rain
10:15 AM 53.6 °F 53.6 °F 100% 29.75 in 4.0 mi SE 13.8 mph 21.9 mph N/A Rain Rain
10:35 AM 53.6 °F 53.6 °F 100% 29.75 in 2.5 mi SE 16.1 mph 20.7 mph N/A Rain Rain
10:55 AM 53.6 °F 53.6 °F 100% 29.74 in 7.0 mi SE 11.5 mph 19.6 mph N/A Rain Light Rain
11:15 AM 53.6 °F 53.6 °F 100% 29.76 in 10.0 mi SSW 6.9 mph - N/A   Overcast
11:35 AM 53.6 °F 53.6 °F 100% 29.76 in 10.0 mi South 4.6 mph 18.4 mph N/A Rain Light Rain
11:55 AM 55.4 °F 53.6 °F 94% 29.74 in 10.0 mi SE 6.9 mph - N/A   Overcast
12:15 PM 55.4 °F 55.4 °F 100% 29.73 in 10.0 mi SE 8.1 mph - N/A   Overcast
12:35 PM 55.4 °F 55.4 °F 100% 29.71 in 10.0 mi SSE 8.1 mph - N/A Rain Light Rain
12:55 PM 55.4 °F 55.4 °F 100% 29.71 in 10.0 mi SE 5.8 mph - N/A   Overcast
1:15 PM 55.4 °F 55.4 °F 100% 29.72 in 10.0 mi South 6.9 mph - N/A   Overcast
1:35 PM 57.2 °F 55.4 °F 94% 29.70 in 10.0 mi SE 8.1 mph - N/A   Overcast
1:55 PM 57.2 °F 55.4 °F 94% 29.70 in 10.0 mi SE 5.8 mph - N/A   Overcast
2:15 PM 57.2 °F 55.4 °F 94% 29.68 in 10.0 mi SSE 6.9 mph - N/A   Overcast
2:35 PM 57.2 °F 57.2 °F 100% 29.68 in 10.0 mi South 3.5 mph - N/A   Overcast
2:55 PM 57.2 °F 57.2 °F 100% 29.67 in 10.0 mi SSE 3.5 mph - N/A   Overcast
3:15 PM 59.0 °F 57.2 °F 94% 29.68 in 10.0 mi SSE 5.8 mph - N/A   Overcast
3:35 PM 59.0 °F 57.2 °F 94% 29.67 in 10.0 mi SE 5.8 mph - N/A   Overcast
3:55 PM 59.0 °F 57.2 °F 94% 29.68 in 10.0 mi South 3.5 mph - N/A   Overcast
4:15 PM 59.0 °F 57.2 °F 94% 29.66 in 10.0 mi SSE 3.5 mph - N/A Rain Light Rain
4:35 PM 59.0 °F 59.0 °F 100% 29.66 in 10.0 mi SSE 4.6 mph - N/A   Light Drizzle
4:55 PM 59.0 °F 59.0 °F 100% 29.64 in 10.0 mi SE 4.6 mph - N/A   Overcast
5:15 PM 59.0 °F 59.0 °F 100% 29.64 in 10.0 mi SSE 4.6 mph - N/A   Overcast
5:35 PM 59.0 °F 59.0 °F 100% 29.63 in 10.0 mi SSE 4.6 mph - N/A   Overcast
5:55 PM 59.0 °F 59.0 °F 100% 29.64 in 10.0 mi South 3.5 mph - N/A   Overcast
6:15 PM 59.0 °F 59.0 °F 100% 29.64 in 10.0 mi SSE 3.5 mph - N/A   Overcast
6:35 PM 59.0 °F 59.0 °F 100% 29.65 in 10.0 mi Calm Calm - N/A   Overcast
6:55 PM 59.0 °F 59.0 °F 100% 29.66 in 10.0 mi Calm Calm - N/A   Overcast
7:15 PM 59.0 °F 59.0 °F 100% 29.66 in 10.0 mi Calm Calm - N/A   Overcast
7:35 PM 59.0 °F 59.0 °F 100% 29.67 in 10.0 mi Calm Calm - N/A   Overcast
7:55 PM 59.0 °F 59.0 °F 100% 29.68 in 10.0 mi Calm Calm - N/A   Overcast
8:15 PM 59.0 °F 59.0 °F 100% 29.68 in 10.0 mi SE 3.5 mph - N/A   Overcast
8:35 PM 59.0 °F 59.0 °F 100% 29.69 in 10.0 mi ESE 3.5 mph - N/A   Overcast
8:55 PM 59.0 °F 59.0 °F 100% 29.70 in 10.0 mi SSE 3.5 mph - N/A   Overcast
9:15 PM 59.0 °F 59.0 °F 100% 29.69 in 10.0 mi SE 5.8 mph - N/A   Overcast
9:35 PM 59.0 °F 59.0 °F 100% 29.70 in 10.0 mi East 4.6 mph - N/A   Overcast
9:55 PM 59.0 °F 59.0 °F 100% 29.70 in 7.0 mi East 3.5 mph - N/A   Overcast
10:15 PM 59.0 °F 59.0 °F 100% 29.70 in 7.0 mi East 4.6 mph - N/A   Overcast
10:35 PM 59.0 °F 59.0 °F 100% 29.69 in 5.0 mi ESE 4.6 mph - N/A   Overcast
10:55 PM 59.0 °F 59.0 °F 100% 29.69 in 4.0 mi Calm Calm - N/A   Overcast
11:15 PM 60.8 °F 60.8 °F 100% 29.68 in 2.5 mi South 5.8 mph - N/A   Overcast
11:35 PM 60.8 °F 60.8 °F 100% 29.68 in 7.0 mi South 6.9 mph - N/A   Overcast
11:55 PM 60.8 °F 60.8 °F 100% 29.68 in 7.0 mi South 5.8 mph - N/A   Overcast